Home   Weather   Tarnów   Past weeks

Flag for Poland Past Weather in Tarnów, Poland — Yesterday and Last 2 Weeks

Now
38 °F

Chilly.


Feels Like: 36 °F
Forecast: 31 / 42 °F
Wind: 3 mph from Northwest

Location: Tarnow

Current Time: Feb 25, 2017 at 5:22:12 pm

Latest Report: Feb 25, 2017 at 4:00 pm


Visibility: 19 mi

Pressure: 30.19 "Hg

Humidity: 56%

Dew Point: 24 °F

Location of TarnówLocation

Past Weather in Tarnów — Graph

°F

Tarnów Temperature Yesterday

Maximum temperature yesterday: 54 °F (at 4:00 am)
Minimum temperature yesterday: 33 °F (at 11:00 pm)
Average temperature yesterday: 45 °F

High & Low Weather Summary for the Past Weeks

 TemperatureHumidityPressure
High54 °F (Feb 24, 4:00 am)97% (Feb 18, 1:00 am)30.74 "Hg (Feb 18, 1:00 am)
Low11 °F (Feb 12, 7:00 am)36% (Feb 16, 2:00 pm)29.29 "Hg (Feb 24, 4:00 am)
Average33 °F76%30.21 "Hg
* Reported Feb 10 4:00 pm — Feb 25 4:00 pm, Tarnów, Weather by CustomWeather, © 2017

Note: Actual official high and low records may vary slightly from our data, if they occured in-between our weather recording intervals... More about our weather records

Advertising

Tarnów Weather History for the Previous 24 Hours

Scroll right to see more
 ConditionsComfort  
Time TempWeatherWind HumidityBarometerVisibility
4:00 pm
Sat, Feb 25
38 °FChilly.3 mph56%30.19 "Hg19 mi
3:00 pm38 °FChilly.3 mph60%30.18 "Hg10 mi
2:00 pm38 °FChilly.3 mph56%30.17 "Hg19 mi
1:00 pm37 °FChilly.5 mph60%30.16 "Hg22 mi
12:00 pm38 °FChilly.5 mph66%30.16 "Hg18 mi
11:00 am35 °FChilly.3 mph67%30.15 "Hg13 mi
10:00 am36 °FChilly.3 mph67%30.13 "Hg19 mi
9:00 am35 °FChilly.3 mph65%30.11 "Hg17 mi
8:00 am32 °FChilly.2 mph75%30.11 "Hg19 mi
7:00 am31 °FChilly.2 mph76%30.09 "Hg14 mi
6:00 am31 °FChilly.2 mph78%30.06 "Hg12 mi
5:00 am30 °FChilly.1 mph79%30.06 "Hg12 mi
4:00 am30 °FChilly.2 mph78%30.05 "Hg8 mi
3:00 am30 °FChilly.1 mph78%30.04 "Hg14 mi
2:00 am31 °FChilly.1 mph76%30.04 "Hg19 mi
1:00 am32 °FChilly.1 mph73%30.02 "Hg25 mi
12:00 am33 °FChilly.1 mph74%30.00 "Hg25 mi
11:00 pm
Fri, Feb 24
33 °FChilly.2 mph71%29.98 "Hg22 mi
10:00 pm33 °FChilly.1 mph71%29.94 "Hg15 mi
9:00 pm33 °FChilly.3 mph71%29.92 "Hg31 mi
8:00 pm34 °FChilly.2 mph69%29.88 "Hg31 mi
7:00 pm36 °FChilly.6 mph64%29.83 "Hg31 mi
6:00 pm40 °FChilly.5 mph57%29.74 "Hg31 mi
5:00 pm44 °FQuite cool.5 mph47%29.66 "Hg31 mi
Weather by CustomWeather, © 2017

See weather overviewHow to use our weather pages